KAZSAT 3

Last updated on April 24, 2017, 12:17 a.m. UTC

1 39728U 14023B   17112.25284360  .00000052  00000-0  00000-0 0  9998
2 39728   0.0190 259.3119 0001118 205.8790 254.8215  1.00271148 10926
UTC
Height (km)
Latitude
Longitude
Inclination
Orbital Period
UTC large
Height (km)
Speed (km/s)
/
Latitude / Longitude
Inclination (degrees)
Orbital Period (minutes)
Azimuth
Elevation
Range (km)
Doppler Factor
iOS Compass Heading
iOS Angle

Next 30 passes for location: Hong Kong

Rise time Rise Azimuth (degrees) Set time Set Azimuth (degrees) Duration Max altitude (degrees)

No matching passes for this satellites